Time,TemperatureF,DewpointF,PressureIn,WindDirection,WindDirectionDegrees,WindSpeedMPH,WindSpeedGustMPH,Humidity,HourlyPrecipIn,Conditions,Clouds,dailyrainin,SoftwareType,DateUTC
2013-01-18 00:00:00,48.0,14.7,26.97,ENE,67,0.0,6.0,26,0.00,,,0.00,Weather View 32 v70,2013-01-18 07:00:00,
2013-01-18 00:10:00,48.0,13.8,26.97,North,360,0.0,6.0,25,0.00,,,0.00,Weather View 32 v70,2013-01-18 07:10:00,
2013-01-18 00:20:00,48.0,15.6,26.96,NNE,22,0.0,6.0,27,0.00,,,0.00,Weather View 32 v70,2013-01-18 07:20:00,
2013-01-18 00:30:00,48.0,14.7,26.96,NNE,22,0.0,4.0,26,0.00,,,0.00,Weather View 32 v70,2013-01-18 07:30:00,
2013-01-18 00:40:00,48.0,15.6,26.96,NE,45,0.0,3.0,27,0.00,,,0.00,Weather View 32 v70,2013-01-18 07:40:00,
2013-01-18 00:50:00,47.0,14.7,26.96,NE,45,0.0,3.0,27,0.00,,,0.00,Weather View 32 v70,2013-01-18 07:50:00,
2013-01-18 01:00:00,47.0,14.7,26.97,NE,45,0.0,3.0,27,0.00,,,0.00,Weather View 32 v70,2013-01-18 08:00:00,
2013-01-18 01:10:00,46.0,14.7,26.97,NE,45,0.0,3.0,28,0.00,,,0.00,Weather View 32 v70,2013-01-18 08:10:00,
2013-01-18 01:15:00,46.0,14.7,26.97,NE,45,0.0,3.0,28,0.00,,,0.00,Weather View 32 v70,2013-01-18 08:15:00,
2013-01-18 01:30:00,46.0,14.7,26.97,NNW,337,0.0,3.0,28,0.00,,,0.00,Weather View 32 v70,2013-01-18 08:30:00,
2013-01-18 01:40:00,46.0,14.7,26.98,North,360,0.0,6.0,28,0.00,,,0.00,Weather View 32 v70,2013-01-18 08:40:00,
2013-01-18 01:50:00,47.0,15.5,26.98,North,360,0.0,6.0,28,0.00,,,0.00,Weather View 32 v70,2013-01-18 08:50:00,
2013-01-18 02:00:00,47.0,15.5,26.98,NE,45,0.0,6.0,28,0.00,,,0.00,Weather View 32 v70,2013-01-18 09:00:00,
2013-01-18 02:10:00,47.0,15.5,26.98,ENE,67,0.0,6.0,28,0.00,,,0.00,Weather View 32 v70,2013-01-18 09:10:00,
2013-01-18 02:16:00,47.0,15.5,26.98,ENE,67,0.0,6.0,28,0.00,,,0.00,Weather View 32 v70,2013-01-18 09:16:00,
2013-01-18 02:30:00,46.0,14.7,26.97,NE,45,0.0,6.0,28,0.00,,,0.00,Weather View 32 v70,2013-01-18 09:30:00,
2013-01-18 02:40:00,46.0,14.7,26.97,East,90,0.0,4.0,28,0.00,,,0.00,Weather View 32 v70,2013-01-18 09:40:00,
2013-01-18 02:50:00,46.0,15.5,26.97,East,90,0.0,4.0,29,0.00,,,0.00,Weather View 32 v70,2013-01-18 09:50:00,
2013-01-18 03:00:00,45.0,13.8,26.97,NNE,22,0.0,4.0,28,0.00,,,0.00,Weather View 32 v70,2013-01-18 10:00:00,
2013-01-18 03:10:00,45.0,15.4,26.96,NNE,22,0.0,0.0,30,0.00,,,0.00,Weather View 32 v70,2013-01-18 10:10:00,
2013-01-18 03:16:00,45.0,15.4,26.96,NNE,22,0.0,0.0,30,0.00,,,0.00,Weather View 32 v70,2013-01-18 10:16:00,
2013-01-18 03:30:00,45.0,15.4,26.97,NNE,22,0.0,0.0,30,0.00,,,0.00,Weather View 32 v70,2013-01-18 10:30:00,
2013-01-18 03:40:00,44.0,14.5,26.97,NNE,22,0.0,0.0,30,0.00,,,0.00,Weather View 32 v70,2013-01-18 10:40:00,
2013-01-18 03:50:00,44.0,15.3,26.97,NNE,22,0.0,0.0,31,0.00,,,0.00,Weather View 32 v70,2013-01-18 10:50:00,
2013-01-18 04:00:00,43.0,14.4,26.97,NNE,22,0.0,0.0,31,0.00,,,0.00,Weather View 32 v70,2013-01-18 11:00:00,
2013-01-18 04:10:00,43.0,15.1,26.97,East,90,0.0,0.0,32,0.00,,,0.00,Weather View 32 v70,2013-01-18 11:10:00,
2013-01-18 04:17:00,43.0,15.1,26.97,East,90,0.0,0.0,32,0.00,,,0.00,Weather View 32 v70,2013-01-18 11:17:00,
2013-01-18 04:30:00,42.0,14.2,26.97,North,360,0.0,0.0,32,0.00,,,0.00,Weather View 32 v70,2013-01-18 11:30:00,
2013-01-18 04:40:00,42.0,14.9,26.97,NNE,22,0.0,0.0,33,0.00,,,0.00,Weather View 32 v70,2013-01-18 11:40:00,
2013-01-18 04:50:00,42.0,14.2,26.97,North,360,0.0,0.0,32,0.00,,,0.00,Weather View 32 v70,2013-01-18 11:50:00,
2013-01-18 05:00:00,43.0,15.1,26.96,North,360,0.0,0.0,32,0.00,,,0.00,Weather View 32 v70,2013-01-18 12:00:00,
2013-01-18 05:10:00,43.0,15.1,26.96,NW,315,0.0,0.0,32,0.00,,,0.00,Weather View 32 v70,2013-01-18 12:10:00,
2013-01-18 05:17:00,43.0,15.1,26.96,NW,315,0.0,0.0,32,0.00,,,0.00,Weather View 32 v70,2013-01-18 12:17:00,
2013-01-18 05:30:00,43.0,15.8,26.96,North,360,0.0,0.0,33,0.00,,,0.00,Weather View 32 v70,2013-01-18 12:30:00,
2013-01-18 05:40:00,43.0,14.4,26.96,NE,45,0.0,4.0,31,0.00,,,0.00,Weather View 32 v70,2013-01-18 12:40:00,
2013-01-18 05:50:00,43.0,14.4,26.97,NNW,337,0.0,4.0,31,0.00,,,0.00,Weather View 32 v70,2013-01-18 12:50:00,
2013-01-18 06:00:00,43.0,15.1,26.97,NNW,337,0.0,4.0,32,0.00,,,0.00,Weather View 32 v70,2013-01-18 13:00:00,
2013-01-18 06:10:00,43.0,15.8,26.97,NNW,337,0.0,4.0,33,0.00,,,0.00,Weather View 32 v70,2013-01-18 13:10:00,
2013-01-18 06:18:00,43.0,15.8,26.97,NNW,337,0.0,4.0,33,0.00,,,0.00,Weather View 32 v70,2013-01-18 13:18:00,
2013-01-18 06:30:00,42.0,14.2,26.98,NNW,337,0.0,4.0,32,0.00,,,0.00,Weather View 32 v70,2013-01-18 13:30:00,
2013-01-18 06:40:00,41.0,14.7,26.98,NNW,337,0.0,0.0,34,0.00,,,0.00,Weather View 32 v70,2013-01-18 13:40:00,
2013-01-18 06:50:00,41.0,14.1,26.99,NNW,337,0.0,0.0,33,0.00,,,0.00,Weather View 32 v70,2013-01-18 13:50:00,
2013-01-18 07:00:00,40.0,15.2,26.99,North,360,0.0,0.0,36,0.00,,,0.00,Weather View 32 v70,2013-01-18 14:00:00,
2013-01-18 07:10:00,40.0,15.2,26.99,North,360,0.0,0.0,36,0.00,,,0.00,Weather View 32 v70,2013-01-18 14:10:00,
2013-01-18 07:18:00,40.0,15.2,26.99,North,360,0.0,0.0,36,0.00,,,0.00,Weather View 32 v70,2013-01-18 14:18:00,
2013-01-18 07:30:00,41.0,14.7,26.99,NNE,22,0.0,3.0,34,0.00,,,0.00,Weather View 32 v70,2013-01-18 14:30:00,
2013-01-18 07:40:00,41.0,14.7,26.99,North,360,0.0,3.0,34,0.00,,,0.00,Weather View 32 v70,2013-01-18 14:40:00,
2013-01-18 07:50:00,41.0,14.7,26.99,NNE,22,0.0,3.0,34,0.00,,,0.00,Weather View 32 v70,2013-01-18 14:50:00,
2013-01-18 08:00:00,41.0,15.4,26.99,NNE,22,0.0,3.0,35,0.00,,,0.00,Weather View 32 v70,2013-01-18 15:00:00,
2013-01-18 08:10:00,40.0,15.2,27.00,NNE,22,0.0,3.0,36,0.00,,,0.00,Weather View 32 v70,2013-01-18 15:10:00,
2013-01-18 08:19:00,40.0,15.2,27.00,NNE,22,0.0,3.0,36,0.00,,,0.00,Weather View 32 v70,2013-01-18 15:19:00,
2013-01-18 08:30:00,40.0,15.2,27.01,NNE,22,0.0,2.0,36,0.00,,,0.00,Weather View 32 v70,2013-01-18 15:30:00,
2013-01-18 08:40:00,41.0,15.4,27.00,NNE,22,0.0,0.0,35,0.00,,,0.00,Weather View 32 v70,2013-01-18 15:40:00,
2013-01-18 08:50:00,42.0,16.9,27.00,North,360,0.0,0.0,36,0.00,,,0.00,Weather View 32 v70,2013-01-18 15:50:00,
2013-01-18 09:00:00,44.0,19.4,26.99,North,360,0.0,0.0,37,0.00,,,0.00,Weather View 32 v70,2013-01-18 16:00:00,
2013-01-18 09:10:00,47.0,20.7,26.99,North,360,0.0,0.0,35,0.00,,,0.00,Weather View 32 v70,2013-01-18 16:10:00,
2013-01-18 09:19:00,47.0,20.7,26.99,North,360,0.0,0.0,35,0.00,,,0.00,Weather View 32 v70,2013-01-18 16:19:00,
2013-01-18 09:30:00,52.0,23.0,26.97,North,360,0.0,0.0,32,0.00,,,0.00,Weather View 32 v70,2013-01-18 16:30:00,
2013-01-18 09:40:00,55.0,22.4,26.97,NW,315,0.0,0.0,28,0.00,,,0.00,Weather View 32 v70,2013-01-18 16:40:00,
2013-01-18 09:50:00,57.0,22.4,26.97,SSW,202,0.0,0.0,26,0.00,,,0.00,Weather View 32 v70,2013-01-18 16:50:00,
2013-01-18 10:00:00,57.0,20.5,26.97,South,180,0.0,0.0,24,0.00,,,0.00,Weather View 32 v70,2013-01-18 17:00:00,
2013-01-18 10:10:00,58.0,21.3,26.98,South,180,0.0,0.0,24,0.00,,,0.00,Weather View 32 v70,2013-01-18 17:10:00,
2013-01-18 10:20:00,58.0,19.3,26.97,South,180,0.0,0.0,22,0.00,,,0.00,Weather View 32 v70,2013-01-18 17:20:00,
2013-01-18 10:30:00,59.0,20.1,26.97,South,180,0.0,0.0,22,0.00,,,0.00,Weather View 32 v70,2013-01-18 17:30:00,
2013-01-18 10:40:00,60.0,22.0,26.96,SSW,202,0.0,3.0,23,0.00,,,0.00,Weather View 32 v70,2013-01-18 17:40:00,
2013-01-18 10:50:00,61.0,21.8,26.96,SSE,157,0.0,3.0,22,0.00,,,0.00,Weather View 32 v70,2013-01-18 17:50:00,
2013-01-18 11:00:00,62.0,21.5,26.95,SE,135,0.0,7.0,21,0.00,,,0.00,Weather View 32 v70,2013-01-18 18:00:00,
2013-01-18 11:10:00,64.0,22.0,26.94,South,180,0.0,7.0,20,0.00,,,0.00,Weather View 32 v70,2013-01-18 18:10:00,
2013-01-18 11:20:00,65.0,21.6,26.93,SSW,202,0.0,7.0,19,0.00,,,0.00,Weather View 32 v70,2013-01-18 18:20:00,
2013-01-18 11:30:00,66.0,21.2,26.93,SE,135,0.0,7.0,18,0.00,,,0.00,Weather View 32 v70,2013-01-18 18:30:00,
2013-01-18 11:40:00,67.0,20.7,26.91,SE,135,0.0,7.0,17,0.00,,,0.00,Weather View 32 v70,2013-01-18 18:40:00,
2013-01-18 11:50:00,69.0,20.8,26.91,SSE,157,0.0,7.0,16,0.00,,,0.00,Weather View 32 v70,2013-01-18 18:50:00,
2013-01-18 12:00:00,70.0,18.5,26.89,SSW,202,0.0,7.0,14,0.00,,,0.00,Weather View 32 v70,2013-01-18 19:00:00,
2013-01-18 12:10:00,72.0,18.4,26.89,SE,135,0.0,7.0,13,0.00,,,0.00,Weather View 32 v70,2013-01-18 19:10:00,
2013-01-18 12:20:00,73.0,19.1,26.87,South,180,1.0,7.0,13,0.00,,,0.00,Weather View 32 v70,2013-01-18 19:20:00,
2013-01-18 12:30:00,74.0,18.1,26.86,South,180,0.0,7.0,12,0.00,,,0.00,Weather View 32 v70,2013-01-18 19:30:00,
2013-01-18 12:40:00,74.0,16.0,26.86,ESE,112,0.0,7.0,11,0.00,,,0.00,Weather View 32 v70,2013-01-18 19:40:00,
2013-01-18 12:50:00,74.0,18.1,26.85,SE,135,0.0,7.0,12,0.00,,,0.00,Weather View 32 v70,2013-01-18 19:50:00,
2013-01-18 13:00:00,74.0,18.1,26.84,SSE,157,0.0,9.0,12,0.00,,,0.00,Weather View 32 v70,2013-01-18 20:00:00,
2013-01-18 13:10:00,75.0,16.8,26.83,South,180,0.0,9.0,11,0.00,,,0.00,Weather View 32 v70,2013-01-18 20:10:00,
2013-01-18 13:20:00,75.0,16.8,26.83,South,180,0.0,9.0,11,0.00,,,0.00,Weather View 32 v70,2013-01-18 20:20:00,
2013-01-18 13:30:00,76.0,19.6,26.83,SSW,202,3.0,11.0,12,0.00,,,0.00,Weather View 32 v70,2013-01-18 20:30:00,
2013-01-18 13:40:00,76.0,19.6,26.82,SSE,157,0.0,11.0,12,0.00,,,0.00,Weather View 32 v70,2013-01-18 20:40:00,
2013-01-18 13:50:00,76.0,17.6,26.81,South,180,5.0,11.0,11,0.00,,,0.00,Weather View 32 v70,2013-01-18 20:50:00,
2013-01-18 14:00:00,76.0,19.6,26.81,SSE,157,0.0,11.0,12,0.00,,,0.00,Weather View 32 v70,2013-01-18 21:00:00,
2013-01-18 14:10:00,76.0,19.6,26.81,South,180,0.0,11.0,12,0.00,,,0.00,Weather View 32 v70,2013-01-18 21:10:00,
2013-01-18 14:20:00,77.0,18.4,26.80,South,180,0.0,11.0,11,0.00,,,0.00,Weather View 32 v70,2013-01-18 21:20:00,
2013-01-18 14:30:00,77.0,20.4,26.80,SSE,157,0.0,10.0,12,0.00,,,0.00,Weather View 32 v70,2013-01-18 21:30:00,
2013-01-18 14:40:00,77.0,18.4,26.81,South,180,0.0,10.0,11,0.00,,,0.00,Weather View 32 v70,2013-01-18 21:40:00,
2013-01-18 14:50:00,77.0,18.4,26.80,SSE,157,0.0,10.0,11,0.00,,,0.00,Weather View 32 v70,2013-01-18 21:50:00,
2013-01-18 15:00:00,76.0,17.6,26.80,SSW,202,0.0,10.0,11,0.00,,,0.00,Weather View 32 v70,2013-01-18 22:00:00,
2013-01-18 15:10:00,77.0,18.4,26.80,SE,135,0.0,10.0,11,0.00,,,0.00,Weather View 32 v70,2013-01-18 22:10:00,
2013-01-18 15:20:00,77.0,18.4,26.80,SSE,157,0.0,7.0,11,0.00,,,0.00,Weather View 32 v70,2013-01-18 22:20:00,
2013-01-18 15:30:00,77.0,18.4,26.80,SE,135,3.0,8.0,11,0.00,,,0.00,Weather View 32 v70,2013-01-18 22:30:00,
2013-01-18 15:40:00,76.0,17.6,26.80,SSW,202,4.0,8.0,11,0.00,,,0.00,Weather View 32 v70,2013-01-18 22:40:00,
2013-01-18 15:50:00,76.0,17.6,26.80,SE,135,0.0,8.0,11,0.00,,,0.00,Weather View 32 v70,2013-01-18 22:50:00,
2013-01-18 16:00:00,76.0,17.6,26.80,South,180,6.0,9.0,11,0.00,,,0.00,Weather View 32 v70,2013-01-18 23:00:00,
2013-01-18 16:10:00,76.0,17.6,26.80,South,180,0.0,9.0,11,0.00,,,0.00,Weather View 32 v70,2013-01-18 23:10:00,
2013-01-18 16:20:00,75.0,18.8,26.80,SSW,202,0.0,9.0,12,0.00,,,0.00,Weather View 32 v70,2013-01-18 23:20:00,
2013-01-18 16:30:00,74.0,18.1,26.80,South,180,4.0,9.0,12,0.00,,,0.00,Weather View 32 v70,2013-01-18 23:30:00,
2013-01-18 16:40:00,74.0,18.1,26.80,South,180,0.0,9.0,12,0.00,,,0.00,Weather View 32 v70,2013-01-18 23:40:00,
2013-01-18 16:50:00,73.0,19.1,26.81,SSE,157,0.0,9.0,13,0.00,,,0.00,Weather View 32 v70,2013-01-18 23:50:00,
2013-01-18 17:00:00,72.0,18.4,26.81,South,180,0.0,8.0,13,0.00,,,0.00,Weather View 32 v70,2013-01-19 00:00:00,
2013-01-18 17:10:00,71.0,17.6,26.82,SE,135,0.0,8.0,13,0.00,,,0.00,Weather View 32 v70,2013-01-19 00:10:00,
2013-01-18 17:20:00,70.0,18.5,26.82,SE,135,0.0,8.0,14,0.00,,,0.00,Weather View 32 v70,2013-01-19 00:20:00,
2013-01-18 17:30:00,69.0,19.3,26.83,ESE,112,0.0,7.0,15,0.00,,,0.00,Weather View 32 v70,2013-01-19 00:30:00,
2013-01-18 17:40:00,68.0,20.0,26.83,South,180,0.0,7.0,16,0.00,,,0.00,Weather View 32 v70,2013-01-19 00:40:00,
2013-01-18 17:50:00,67.0,19.2,26.85,East,90,0.0,0.0,16,0.00,,,0.00,Weather View 32 v70,2013-01-19 00:50:00,
2013-01-18 18:00:00,65.0,19.0,26.85,East,90,0.0,0.0,17,0.00,,,0.00,Weather View 32 v70,2013-01-19 01:00:00,
2013-01-18 18:10:00,63.0,18.7,26.86,North,360,0.0,0.0,18,0.00,,,0.00,Weather View 32 v70,2013-01-19 01:10:00,
2013-01-18 18:20:00,61.0,18.4,26.87,North,360,0.0,0.0,19,0.00,,,0.00,Weather View 32 v70,2013-01-19 01:20:00,
2013-01-18 18:30:00,60.0,19.9,26.87,North,360,0.0,0.0,21,0.00,,,0.00,Weather View 32 v70,2013-01-19 01:30:00,
2013-01-18 18:40:00,58.0,19.3,26.88,NE,45,0.0,0.0,22,0.00,,,0.00,Weather View 32 v70,2013-01-19 01:40:00,
2013-01-18 18:50:00,57.0,19.5,26.89,NNE,22,4.0,6.0,23,0.00,,,0.00,Weather View 32 v70,2013-01-19 01:50:00,
2013-01-18 19:00:00,57.0,19.5,26.89,NNE,22,2.0,6.0,23,0.00,,,0.00,Weather View 32 v70,2013-01-19 02:00:00,
2013-01-18 19:10:00,56.0,18.7,26.89,North,360,0.0,6.0,23,0.00,,,0.00,Weather View 32 v70,2013-01-19 02:10:00,
2013-01-18 19:20:00,55.0,18.8,26.89,NNE,22,0.0,6.0,24,0.00,,,0.00,Weather View 32 v70,2013-01-19 02:20:00,
2013-01-18 19:25:00,55.0,18.8,26.89,NNE,22,0.0,6.0,24,0.00,,,0.00,Weather View 32 v70,2013-01-19 02:25:00,
2013-01-18 19:40:00,54.0,18.0,26.90,NNE,22,0.0,6.0,24,0.00,,,0.00,Weather View 32 v70,2013-01-19 02:40:00,
2013-01-18 19:50:00,54.0,17.0,26.90,North,360,0.0,7.0,23,0.00,,,0.00,Weather View 32 v70,2013-01-19 02:50:00,
2013-01-18 20:00:00,54.0,17.0,26.90,NNE,22,3.0,7.0,23,0.00,,,0.00,Weather View 32 v70,2013-01-19 03:00:00,
2013-01-18 20:10:00,54.0,17.0,26.91,ENE,67,0.0,8.0,23,0.00,,,0.00,Weather View 32 v70,2013-01-19 03:10:00,
2013-01-18 20:20:00,53.0,16.1,26.91,NE,45,0.0,8.0,23,0.00,,,0.00,Weather View 32 v70,2013-01-19 03:20:00,
2013-01-18 20:25:00,53.0,16.1,26.91,NE,45,0.0,8.0,23,0.00,,,0.00,Weather View 32 v70,2013-01-19 03:25:00,
2013-01-18 20:40:00,52.0,15.3,26.92,East,90,0.0,8.0,23,0.00,,,0.00,Weather View 32 v70,2013-01-19 03:40:00,
2013-01-18 20:50:00,51.0,14.4,26.91,NE,45,0.0,8.0,23,0.00,,,0.00,Weather View 32 v70,2013-01-19 03:50:00,
2013-01-18 21:00:00,51.0,15.4,26.91,East,90,0.0,8.0,24,0.00,,,0.00,Weather View 32 v70,2013-01-19 04:00:00,
2013-01-18 21:10:00,50.0,13.6,26.91,NNE,22,0.0,3.0,23,0.00,,,0.00,Weather View 32 v70,2013-01-19 04:10:00,
2013-01-18 21:20:00,50.0,13.6,26.92,North,360,3.0,7.0,23,0.00,,,0.00,Weather View 32 v70,2013-01-19 04:20:00,
2013-01-18 21:30:00,51.0,14.4,26.92,NE,45,0.0,7.0,23,0.00,,,0.00,Weather View 32 v70,2013-01-19 04:30:00,
2013-01-18 21:40:00,51.0,16.4,26.92,NE,45,0.0,7.0,25,0.00,,,0.00,Weather View 32 v70,2013-01-19 04:40:00,
2013-01-18 21:50:00,50.0,15.5,26.93,NE,45,0.0,7.0,25,0.00,,,0.00,Weather View 32 v70,2013-01-19 04:50:00,
2013-01-18 22:10:00,50.0,13.6,26.93,NE,45,0.0,7.0,23,0.00,,,0.00,Weather View 32 v70,2013-01-19 05:10:00,
2013-01-18 22:20:00,49.0,12.8,26.93,NE,45,0.0,7.0,23,0.00,,,0.00,Weather View 32 v70,2013-01-19 05:20:00,
2013-01-18 22:27:00,49.0,12.8,26.93,NE,45,0.0,7.0,23,0.00,,,0.00,Weather View 32 v70,2013-01-19 05:27:00,
2013-01-18 22:40:00,48.0,13.8,26.94,NNE,22,0.0,2.0,25,0.00,,,0.00,Weather View 32 v70,2013-01-19 05:40:00,
2013-01-18 22:50:00,48.0,14.7,26.94,NNE,22,0.0,2.0,26,0.00,,,0.00,Weather View 32 v70,2013-01-19 05:50:00,
2013-01-18 23:00:00,47.0,14.7,26.94,NNE,22,0.0,0.0,27,0.00,,,0.00,Weather View 32 v70,2013-01-19 06:00:00,
2013-01-18 23:10:00,47.0,14.7,26.94,NE,45,0.0,0.0,27,0.00,,,0.00,Weather View 32 v70,2013-01-19 06:10:00,
2013-01-18 23:20:00,47.0,13.8,26.94,North,360,0.0,5.0,26,0.00,,,0.00,Weather View 32 v70,2013-01-19 06:20:00,
2013-01-18 23:27:00,47.0,13.8,26.94,North,360,0.0,5.0,26,0.00,,,0.00,Weather View 32 v70,2013-01-19 06:27:00,
2013-01-18 23:40:00,47.0,13.8,26.94,ESE,112,0.0,5.0,26,0.00,,,0.00,Weather View 32 v70,2013-01-19 06:40:00,
2013-01-18 23:50:00,47.0,12.9,26.94,North,360,1.0,5.0,25,0.00,,,0.00,Weather View 32 v70,2013-01-19 06:50:00,